Regional Weather Roundup
Issued by NWS

Home | Current Version | Previous Version | Graphics & Text | Print | Product List | Glossary On
Versions: 1 2 3 4 5 6 7 8 9 10 11 12 13 14 15 16 17 18 19 20 21 22 23 24 25 26 27 28 29 30 31 32 33 34 35 36 37 38 39 40 41 42 43 44 45 46 47 48 49 50
040
ASUS45 KSLC 242310
RWRUT

UTAH REGIONAL WEATHER ROUNDUP
NATIONAL WEATHER SERVICE SALT LAKE CITY UT
500 PM MDT SAT JUN 24 2017

UTZ001>011-023>025-250000-

NORTHERN UTAH

CITY           SKY/WX    TMP DP  RH WIND       PRES   REMARKS
BRIGHAM CITY   SUNNY     85  18   8 CALM      30.16F
HILL AFB       SUNNY     82  38  20 W7        30.20F
LOGAN          SUNNY     86  28  12 VRB6      30.17F
OGDEN          SUNNY     84  33  16 N8        30.17F
SALT LAKE CITY SUNNY     88  30  12 N7        30.15F
TOOELE VALLEY  SUNNY     82  36  18 N10       30.17F
WENDOVER         N/A     89  28  11 SE10      30.15F
HEBER CITY     SUNNY     86  32  14 N7        30.21S
WEST JORDAN    SUNNY     85  45  24 NW13      30.19S

$$

UTZ011>015-024>027-250000-

CENTRAL/NORTHEAST UTAH

CITY           SKY/WX    TMP DP  RH WIND       PRES   REMARKS
PROVO AIRPORT  SUNNY     86  36  16 W6        30.16F
MOAB/CANYONLAN SUNNY     96   6   3 VRB6      30.04F
DELTA          SUNNY     90  18   7 NW5       30.15S
PRICE          SUNNY     89  13   6 NW16G26   30.19S
RICHFIELD      SUNNY     90  28  11 NE8       30.17F
VERNAL         SUNNY     85  28  12 VRB5      30.18F

$$

UTZ013>016-019>022-027-250000-

SOUTHERN UTAH

CITY           SKY/WX    TMP DP  RH WIND       PRES   REMARKS
BRYCE CANYON   SUNNY     81  23  11 NW8       30.32F
CEDAR CITY     SUNNY     94  20   7 NE12      30.15F
MILFORD        SUNNY     94  19   6 N16G24    30.13F
ST GEORGE      CLEAR    109  28   6 W17G23    29.86F HX 101
HANKSVILLE     SUNNY     99  19   6 E6        30.04F HX  91
KANAB          SUNNY    100  23   6 NW13G20   30.08F HX  93
BLANDING       SUNNY     91  25   9 NW16G24   30.19F

$$

REGIONAL REPORTS     COLORADO/ARIZONA

CITY           SKY/WX    TMP DP  RH WIND       PRES   REMARKS
CRAIG, CO      SUNNY     80  18  10 NW8       30.27S
GRAND JUNCTION SUNNY     93  25   8 W14G21    30.08F
RIFLE, CO      SUNNY     88  21   8 N13G21    30.17S
MONTROSE, CO   SUNNY     89  23   9 NW12G17   30.15F
CORTEZ, CO     SUNNY     94  18   6 W16G22    30.12F
COLORADO CITY    N/A    104  28   7 NW18G24   30.09S HX  97
PAGE, AZ       SUNNY    103  20   5 E5        29.97F HX  95
GRAND CANYON   MOSUNNY   95  21   7 N12G18    30.21F
KINGMAN, AZ    MOSUNNY  107  33   8 W8        29.90F HX 100
FLAGSTAFF, AZ  PTSUNNY   89  22   8 SW8       30.23F

$$

REGIONAL REPORTS    NEVADA/IDAHO/WYOMING

CITY           SKY/WX    TMP DP  RH WIND       PRES   REMARKS
LAS VEGAS, NV  MOSUNNY  111   6   2 VRB5      29.80F HX 101
ELY, NY        SUNNY     89  34  14 NE10      30.23F
ELKO, NV       SUNNY     90  20   7 VRB6      30.18F
POCATELLO, ID  MOSUNNY   82  32  16 N9        30.21F
BURLEY, ID     SUNNY     82  32  16 W12       30.17F
FORT BRIDGER,    N/A     78  23  13 NW6       30.36S
EVANSTON, WY   SUNNY     77  32  19 SW9       30.33F
ROCK SPRINGS,  SUNNY     76  24  14 W7        30.32F
KEMMERER, WY     N/A     73  28  19 W8        30.35F

$$




USA.gov is the U.S. government's official web portal to all federal, state and local government web resources and services.